Location: Washington
(38.8950°N, 77.0370°W)
Time: 03:34:02
(UTC-05:00)

Tiangong 1 - Visible Passes

Search period start: 22 December 2014 00:00
Search period end: 01 January 2015 00:00
Orbit: 363 x 384 km, 42.8° (Epoch: 22 December)

Date Brightness Start Highest point End Pass type
(mag) Time Alt. Az. Time Alt. Az. Time Alt. Az.
22 Dec 1.6 18:36:39 10° WNW 18:39:09 52° NW 18:39:09 52° NW visible
23 Dec 1.4 17:33:23 10° WNW 17:36:24 48° NNE 17:39:06 12° E visible
23 Dec 3.7 19:09:55 10° W 19:11:06 20° W 19:11:06 20° W visible
24 Dec 1.0 18:06:27 10° WNW 18:09:32 80° SSW 18:11:07 26° ESE visible
25 Dec 2.9 18:39:40 10° W 18:42:21 27° SSW 18:43:16 23° S visible
26 Dec 1.8 17:35:52 10° WNW 17:38:52 52° SSW 17:41:53 10° SE visible
27 Dec 3.9 18:09:14 10° W 18:11:23 17° SW 18:13:31 10° S visible
29 Dec 4.5 17:39:02 10° SW 17:39:58 11° SW 17:40:53 10° SSW visible
